[[{"header":{"parameterUnit":"m.s-1","parameterCategory":1,"la1":30.2991,"la2":30.254,"lo1":-89.0895,"lo2":-89.0444,"dy":0.0017,"dx":0.0017,"nx":28,"ny":28,"refTime":"2024-02-28T03:00:00:Z","depth":0,"parameterNumber":2,"parameterNumberName":"U-component_of_WINDS"},"data":[0,0,0,0,0,0,0,0,0,0,0,0,0,0,0,0,0,0,0,0,0,0,0,0,0,0,0,0,0,0,0,0,0,0,0,0,0,0,0,0,0,0,0,0,0,0,0,0,0,0,0,0,0,0,0,0,0,0,-3.8127,-3.8129,0,-3.8227,-3.8228,-3.8229,-3.8146,-3.8143,-3.8139,-3.8136,-3.8241,-3.8247,-3.8253,0,0,0,0,0,0,0,0,0,0,0,0,0,-3.7869,-3.7875,-3.8127,-3.8129,-3.813,-3.8227,-3.8228,-3.8229,-3.8147,-3.8142,-3.8138,-3.8134,-3.8239,-3.8246,-3.8254,0,0,0,0,0,0,0,0,0,0,0,0,0,-3.7977,-3.7876,-3.8127,-3.81,-3.8099,-3.8226,-3.8228,-3.823,-3.8147,-3.8142,-3.8137,-3.8132,-3.8237,-3.8246,-3.8255,-3.8415,0,0,-3.8282,-3.8286,0,0,0,0,0,0,0,0,-3.7971,-3.7986,-3.8103,-3.8102,-3.8101,-3.8168,-3.8175,-3.8292,-3.8149,-3.8129,-3.8136,-3.813,-3.8222,-3.8231,-3.8262,-3.842,-3.8425,-3.8283,-3.8289,-3.8293,-3.8295,0,0,0,0,0,0,0,-3.7963,-3.7981,-3.8167,-3.8105,-3.8104,-3.8084,-3.8094,-3.8197,-3.8204,-3.813,-3.8125,-3.8137,-3.822,-3.8253,-3.8264,-3.8426,-3.8283,-3.8291,-3.8297,-3.83,-3.8722,-3.8728,0,0,0,0,0,0,-3.7958,-3.7976,-3.8164,-3.817,-3.8021,-3.8093,-3.8104,-3.8152,-3.8202,-3.8205,-3.8142,-3.8133,-3.824,-3.8253,-3.8267,-3.8459,-3.8292,-3.8301,-3.8306,-3.8716,-3.8723,-3.873,0,0,0,0,0,0,-3.7953,-3.7976,-3.816,-3.8071,-3.8093,-3.8103,-3.8158,-3.8157,-3.819,-3.8211,-3.8212,-3.8174,-3.8237,-3.8254,-3.8379,-3.8462,-3.8305,-3.8313,-3.871,-3.8719,-3.8726,-3.8844,0,0,0,0,0,0,-3.7946,-3.7974,-3.8035,-3.8073,-3.8098,-3.8269,-3.8163,-3.8163,-3.8205,-3.8195,-3.8241,-3.8244,-3.8234,-3.8366,-3.8388,-3.8471,-3.832,-3.8702,-3.8714,-3.8724,-3.8833,-3.8856,-3.8875,0,0,0,0,0,-3.7937,-3.8064,-3.8038,-3.8061,-3.8174,-3.8274,-3.8288,-3.8273,-3.8212,-3.8274,-3.8287,-3.8243,-3.8448,-3.8379,-3.8403,-3.8491,-3.8697,-3.871,-3.8723,-3.8824,-3.8851,-3.8875,0,0,0,0,0,0,-3.8037,-3.8069,-3.804,-3.8184,-3.8227,-3.826,-3.8337,-3.8303,-3.8365,-3.8353,-3.8332,-3.8343,-3.8475,-3.8495,-3.8417,-3.8649,-3.8563,-3.8582,-3.8631,-3.8658,-3.8679,-3.8672,-3.8328,0,0,0,0,0,-3.8075,-3.8153,-3.8177,-3.8302,-3.8324,-3.8327,-3.837,-3.8355,-3.8399,-3.8417,-3.8439,-3.8485,-3.856,-3.861,-3.868,-3.8835,-3.8845,-3.8907,-3.8928,-3.8945,-3.8962,-3.9047,-3.9075,-3.8772,-3.8772,-3.8772,0,0,-3.8156,-3.8183,-3.8234,-3.8322,-3.8354,-3.8436,-3.8343,-3.8434,-3.8495,-3.8431,-3.855,-3.8568,-3.8618,-3.8759,-3.8822,-3.878,-3.9048,-3.8962,-3.8975,-3.8983,-3.9063,-3.9092,-3.9118,-3.8781,-3.8779,-3.8778,0,0,-3.8345,-3.8373,-3.848,-3.8513,-3.8562,-3.8562,-3.8588,-3.8627,-3.8636,-3.8755,-3.8709,-3.8781,-3.8911,-3.8948,-3.8984,-3.9188,-3.915,-3.9211,-3.9322,-3.9405,-3.9429,-3.945,-3.9525,-3.9551,-3.9227,-3.9228,-3.9228,0,-3.844,-3.8561,-3.854,-3.8634,-3.8675,-3.8619,-3.8728,-3.8762,-3.8831,-3.8862,-3.8812,-3.8974,-3.9003,-3.9153,-3.9202,-3.9233,-3.9263,-3.9207,-3.9427,-3.9448,-3.9468,-3.9538,-3.9566,-3.9235,-3.9234,-3.9233,-3.9233,0,-3.8676,-3.8761,-3.8841,-3.8909,-3.8958,-3.906,-3.9055,-3.9108,-3.9088,-3.9095,-3.9217,-3.925,-3.9326,-3.936,-3.9342,-3.9508,-3.948,-3.943,-3.9343,-3.9504,-3.957,-3.9597,-3.9245,-3.9243,-3.9241,-3.9239,0,0,-3.8932,-3.8986,-3.9016,-3.9046,-3.9095,-3.9161,-3.926,-3.9333,-3.938,-3.943,-3.9513,-3.9624,-3.9578,-3.9619,-3.9604,-3.9676,-3.9837,-3.9617,-3.9618,-3.9658,-4.0024,-4.0063,-4.0094,-3.9812,-3.9817,-3.9821,-4.002,0,-3.9125,-3.9296,-3.928,-3.9443,-3.9522,-3.947,-3.9556,-3.9597,-3.9605,-3.9674,-3.9684,-3.9763,-3.9695,-3.972,-3.9789,-3.9803,-3.9911,-3.9788,-3.9891,-3.9895,-3.9882,-4.0128,-4.017,-4.0356,-4.0046,-4.005,-4.0053,0,-3.9373,-3.943,-3.9601,-3.9638,-3.9671,-3.9749,-3.9815,-3.9881,-3.9926,-3.9927,-3.9973,-3.9946,-4.0047,-3.9957,-4.0097,-4.0014,-4.0055,-4.0068,-4.0075,-4.0086,-3.9985,-4.0147,-4.0415,-4.0444,-4.0093,-4.009,-4.0087,0,-3.9544,-3.9664,-3.9782,-3.981,-3.9856,-3.9912,-3.9934,-3.9974,-4.0019,-4.0077,-4.0106,-4.0176,-4.0215,-4.027,-4.0263,-4.0198,-4.0406,-4.0315,-4.0411,-4.0412,-4.0459,-4.0457,-4.0739,-4.0483,-4.0483,-4.0482,-4.0481,0,-3.9762,-3.9869,-3.986,-3.9933,-4.0052,-4.0032,-4.0151,-4.0166,-4.0202,-4.0278,-4.0237,-4.0309,-4.0294,-4.0367,-4.0362,-4.048,-4.0497,-4.0502,-4.05,-4.0507,-4.0507,-4.0535,-4.0522,-4.0489,-4.0488,-4.0486,-4.0485,0,-3.9975,-3.9973,-4.0098,-4.0131,-4.0142,-4.0228,-4.0257,-4.0327,-4.0331,-4.0428,-4.045,-4.0458,-4.0541,-4.0539,-4.0634,-4.063,-4.0775,-4.0757,-4.076,-4.0757,-4.0854,-4.0846,-4.1167,-4.1208,-4.0923,-4.0926,-4.0928,0,-4.0115,-4.0196,-4.0237,-4.0285,-4.031,-4.0387,-4.0433,-4.0417,-4.0466,-4.0523,-4.0587,-4.0666,-4.0728,-4.0864,-4.0879,-4.0952,-4.0936,-4.1044,-4.0947,-4.0952,-4.094,-4.0936,-4.0945,-4.1063,-4.1067,-4.1069,-4.1071,0,-4.0364,-4.0359,-4.0425,-4.0493,-4.0548,-4.06,-4.0648,-4.069,-4.0679,-4.0737,-4.0821,-4.0869,-4.0966,-4.1046,-4.1115,-4.1139,-4.1105,-4.1101,-4.1128,-4.1137,-4.1135,-4.1139,-4.0814,-4.1094,-4.1092,-4.109,-4.1089,-4.1088,-4.0545,-4.0615,-4.0656,-4.0732,-4.0766,-4.0812,-4.0879,-4.0891,-4.0961,-4.1037,-4.1023,-4.1118,-4.1161,-4.1251,-4.1282,-4.1356,-4.1318,-4.1356,-4.1366,-4.1376,-4.1388,-4.1122,-4.1369,-4.1368,-4.1367,-4.1367,-4.1366,0,-4.0794,-4.0817,-4.0887,-4.0955,-4.1015,-4.0975,-4.1026,-4.108,-4.1163,-4.1205,-4.1268,-4.1365,-4.1442,-4.1463,-4.1538,-4.1594,-4.158,-4.1614,-4.1611,-4.1617,-4.1417,-4.1387,-4.1624,-4.1624,-4.1624,-4.1624,-4.1624,-4.1624,-4.093,-4.1047,-4.1046,-4.118,-4.1202,-4.1294,-4.1326,-4.1369,-4.1403,-4.1513,-4.1576,-4.1589,-4.1623,-4.17,-4.177,-4.1774,-4.1804,-4.1845,-4.1844,-4.1657,-4.1631,-4.1606,-4.1578,-4.1852,-4.1852,-4.2038,-4.2039,-4.2041]},{"header":{"parameterUnit":"m.s-1","parameterCategory":1,"la1":30.2991,"la2":30.254,"lo1":-89.0895,"lo2":-89.0444,"dy":0.0017,"dx":0.0017,"nx":28,"ny":28,"refTime":"2024-02-28T03:00:00:Z","depth":0,"parameterNumber":3,"parameterNumberName":"V-component_of_WINDS"},"data":[0,0,0,0,0,0,0,0,0,0,0,0,0,0,0,0,0,0,0,0,0,0,0,0,0,0,0,0,0,0,0,0,0,0,0,0,0,0,0,0,0,0,0,0,0,0,0,0,0,0,0,0,0,0,0,0,0,0,-3.4372,-3.4372,0,-3.4395,-3.4395,-3.4396,-3.4364,-3.4362,-3.4361,-3.436,-3.4383,-3.4384,-3.4386,0,0,0,0,0,0,0,0,0,0,0,0,0,-3.4297,-3.4299,-3.4372,-3.4372,-3.4373,-3.4395,-3.4395,-3.4396,-3.4364,-3.4362,-3.4361,-3.436,-3.4382,-3.4384,-3.4386,0,0,0,0,0,0,0,0,0,0,0,0,0,-3.4326,-3.4299,-3.4372,-3.4359,-3.4358,-3.4395,-3.4395,-3.4396,-3.4364,-3.4362,-3.4361,-3.4359,-3.4382,-3.4384,-3.4386,-3.4436,0,0,-3.4394,-3.4395,0,0,0,0,0,0,0,0,-3.4324,-3.4329,-3.4361,-3.436,-3.4359,-3.4375,-3.4377,-3.4409,-3.4365,-3.4362,-3.436,-3.4358,-3.4381,-3.4384,-3.4392,-3.4437,-3.4438,-3.4394,-3.4396,-3.4397,-3.4398,0,0,0,0,0,0,0,-3.4323,-3.4328,-3.4381,-3.4361,-3.436,-3.4352,-3.4354,-3.4383,-3.4381,-3.4362,-3.436,-3.4363,-3.4381,-3.439,-3.4392,-3.4438,-3.4394,-3.4396,-3.4398,-3.4399,-3.4523,-3.4525,0,0,0,0,0,0,-3.4322,-3.4326,-3.438,-3.4382,-3.4337,-3.4354,-3.4357,-3.4372,-3.4381,-3.438,-3.4364,-3.4361,-3.4386,-3.4389,-3.4393,-3.445,-3.4397,-3.4399,-3.4401,-3.4521,-3.4524,-3.4526,0,0,0,0,0,0,-3.4321,-3.4327,-3.4379,-3.4353,-3.4359,-3.4358,-3.4374,-3.4373,-3.4382,-3.4382,-3.4382,-3.4374,-3.4385,-3.4389,-3.4425,-3.445,-3.44,-3.4403,-3.4519,-3.4522,-3.4525,-3.4566,0,0,0,0,0,0,-3.4319,-3.4327,-3.4347,-3.4354,-3.4361,-3.4412,-3.4376,-3.4375,-3.4386,-3.4383,-3.4391,-3.4391,-3.4384,-3.4422,-3.4428,-3.4453,-3.4405,-3.4517,-3.4521,-3.4524,-3.4562,-3.457,-3.4576,0,0,0,0,0,-3.4316,-3.4358,-3.4348,-3.4355,-3.4385,-3.4414,-3.4418,-3.4409,-3.4389,-3.4408,-3.4408,-3.4391,-3.4447,-3.4426,-3.4432,-3.4459,-3.4515,-3.452,-3.4523,-3.4559,-3.4568,-3.4576,0,0,0,0,0,0,-3.4354,-3.4359,-3.4348,-3.4393,-3.4403,-3.4408,-3.4432,-3.4419,-3.4435,-3.4431,-3.4419,-3.4421,-3.4459,-3.4462,-3.4439,-3.4506,-3.4478,-3.4483,-3.4502,-3.4511,-3.4518,-3.4516,-3.4407,0,0,0,0,0,-3.4367,-3.439,-3.4393,-3.4433,-3.4438,-3.4435,-3.4447,-3.4439,-3.4449,-3.4453,-3.4456,-3.4466,-3.4485,-3.4498,-3.4517,-3.4563,-3.4563,-3.4584,-3.4591,-3.4596,-3.4601,-3.4624,-3.4633,-3.4539,-3.4539,-3.4539,0,0,-3.4395,-3.4401,-3.4416,-3.444,-3.4447,-3.4471,-3.4438,-3.4465,-3.4482,-3.4457,-3.4491,-3.4493,-3.4503,-3.4544,-3.4562,-3.4547,-3.4627,-3.4602,-3.4606,-3.4608,-3.4629,-3.4638,-3.4646,-3.4542,-3.4541,-3.4541,0,0,-3.4458,-3.4465,-3.4498,-3.4505,-3.4516,-3.4513,-3.4521,-3.4528,-3.4528,-3.4562,-3.4543,-3.4563,-3.4597,-3.4605,-3.4613,-3.4677,-3.4661,-3.4683,-3.4719,-3.4741,-3.4748,-3.4755,-3.4776,-3.4784,-3.4688,-3.4688,-3.4688,0,-3.4492,-3.4527,-3.4517,-3.4544,-3.4554,-3.4532,-3.4565,-3.4572,-3.4588,-3.4596,-3.458,-3.4621,-3.4627,-3.4668,-3.4683,-3.4691,-3.4698,-3.4682,-3.4748,-3.4754,-3.476,-3.478,-3.4789,-3.469,-3.469,-3.469,-3.4689,0,-3.4566,-3.4591,-3.4616,-3.4631,-3.4645,-3.4674,-3.4668,-3.4682,-3.4673,-3.4671,-3.4704,-3.471,-3.4728,-3.4737,-3.4729,-3.4777,-3.4767,-3.475,-3.4721,-3.4772,-3.479,-3.4798,-3.4694,-3.4693,-3.4692,-3.4691,0,0,-3.4654,-3.4663,-3.4672,-3.4678,-3.4688,-3.4706,-3.4734,-3.4751,-3.4763,-3.4775,-3.4797,-3.4826,-3.4809,-3.4818,-3.481,-3.483,-3.4878,-3.481,-3.481,-3.4821,-3.493,-3.4942,-3.4951,-3.4868,-3.4869,-3.4871,-3.4928,0,-3.4716,-3.4764,-3.4755,-3.4802,-3.4823,-3.4802,-3.4826,-3.4834,-3.4833,-3.485,-3.4848,-3.4868,-3.4846,-3.4851,-3.487,-3.4868,-3.4899,-3.4864,-3.4887,-3.4888,-3.4885,-3.4961,-3.4975,-3.5029,-3.4936,-3.4937,-3.4938,0,-3.4795,-3.4808,-3.4857,-3.4861,-3.487,-3.4892,-3.4906,-3.4923,-3.4931,-3.4929,-3.4939,-3.4926,-3.4953,-3.4924,-3.4959,-3.4935,-3.4944,-3.4945,-3.4947,-3.4948,-3.4916,-3.4963,-3.5046,-3.5054,-3.4949,-3.4948,-3.4948,0,-3.4852,-3.4883,-3.4915,-3.4921,-3.4928,-3.4943,-3.4946,-3.4953,-3.4963,-3.4975,-3.4982,-3.4997,-3.5006,-3.5017,-3.5009,-3.4989,-3.5045,-3.5016,-3.5043,-3.5043,-3.5055,-3.5055,-3.514,-3.5063,-3.5063,-3.5063,-3.5062,0,-3.4921,-3.4952,-3.4941,-3.4961,-3.4994,-3.4982,-3.5015,-3.5016,-3.5021,-3.504,-3.5023,-3.5041,-3.5029,-3.5046,-3.504,-3.5069,-3.5073,-3.5071,-3.5069,-3.5072,-3.5072,-3.5077,-3.5073,-3.5065,-3.5064,-3.5064,-3.5063,0,-3.4991,-3.4985,-3.5019,-3.5022,-3.5023,-3.5047,-3.5049,-3.5067,-3.5064,-3.5088,-3.5093,-3.5088,-3.5106,-3.5099,-3.512,-3.5115,-3.5152,-3.5146,-3.515,-3.5148,-3.5174,-3.5171,-3.5265,-3.5276,-3.5193,-3.5194,-3.5194,0,-3.5035,-3.5058,-3.5062,-3.5074,-3.5078,-3.5097,-3.5107,-3.5096,-3.5108,-3.5117,-3.5134,-3.5151,-3.5164,-3.5195,-3.5193,-3.5207,-3.52,-3.5232,-3.5202,-3.5204,-3.5199,-3.5197,-3.5199,-3.5238,-3.5239,-3.5239,-3.524,0,-3.5114,-3.5109,-3.5125,-3.5139,-3.5152,-3.5162,-3.5172,-3.5182,-3.5171,-3.5185,-3.5203,-3.5213,-3.5233,-3.525,-3.5263,-3.5265,-3.5251,-3.5249,-3.5256,-3.5259,-3.526,-3.5258,-3.5165,-3.5247,-3.5246,-3.5246,-3.5246,-3.5245,-3.5171,-3.5189,-3.5195,-3.5212,-3.5218,-3.5226,-3.5243,-3.5241,-3.5257,-3.5272,-3.5264,-3.5286,-3.5291,-3.5307,-3.5311,-3.5327,-3.5315,-3.5325,-3.5327,-3.533,-3.5333,-3.5258,-3.533,-3.533,-3.5329,-3.5329,-3.5329,0,-3.5247,-3.5249,-3.5266,-3.5278,-3.5292,-3.5277,-3.5285,-3.5297,-3.5316,-3.5323,-3.5335,-3.5356,-3.5372,-3.5371,-3.5385,-3.5398,-3.5391,-3.5402,-3.54,-3.5401,-3.5344,-3.5336,-3.5407,-3.5407,-3.5407,-3.5407,-3.5407,-3.5407,-3.5289,-3.5318,-3.5314,-3.5346,-3.5348,-3.5368,-3.5374,-3.5381,-3.5386,-3.541,-3.5423,-3.5422,-3.5425,-3.5439,-3.5452,-3.5451,-3.5457,-3.5469,-3.5466,-3.5413,-3.5405,-3.5397,-3.539,-3.5471,-3.5471,-3.5521,-3.5522,-3.5522]}]]